Jackpot

Texas Poker Multi Jackpot System

Kini Telah hadir Jackpot SUPER ROYAL FLUSH

Kini Telah hadir Jackpot 2000 (khusus table VIP keatas).

Ikutilah global jackpot yang tersedia di system kami, dengan system jackpot terbaru dan pertama di indonesia, anda dapat membeli jackpot dengan harga 100 rupiah saja dan menangkan hadiahnya hingga puluhan juta rupiah.

Jackpot bukanlah suatu keharusan untuk dibeli, namun kami memberikan suatu fitur tambahan untuk member tercinta dari www.ayopoker99.com.

Terdapat tiga pilihan harga jackpot yang bisa anda beli yaitu :100,500,1000 dan 2000(khusus table VIP Keatas) rupiah.

Hadiah dari Multi jackpot system www.ayopoker99.com

  1. full house x 10 harga jackpot yang anda beli.
      (contoh:anda membeli 1000 maka:1000 X10 = 10.000)
  2. four of kind x 250 harga jackpot yang anda beli
      (contoh:anda membeli 1000 maka:1000 X250 = 250.000)
  3. Straight flush x 1200
      (contoh:anda membeli 1000 maka:1000 X1200 = 1.200.000)
  4. Royal flush x 10000 harga jackpot yang anda beli
      (contoh:anda membeli 1000 maka:1000 X10000 = 10.000.000)
  5. SUPER ROYAL FLUSH x 30000 harga jackpot yang anda beli
      (contoh:anda membeli 1000 maka:1000 X30000 = 30.000.000)

Kondisi kartu

  1. full house adalah kondisi kartu dimana kartu anda dan kartu tengah dengan total 7 kartu bisa mendapatkan nilai 5 kartu dengan kombinasi 1 tris(three of kind) dan 1 pair, contoh 3 kartu 10 dan 2 kartu 5
  2. Four of kind adalah kondisi kartu dimana kartu anda dan kartu tengah dengan total 7 kartu bisa mendapatkan nilai 5 kartu dengan kombinasi 4 kartu yang sama jumlah dan 1 kartu apapun juga contoh anda mendapatkan 4 buah kartu angka 3 dan 1 kartu apapun.
  3. Staright flush adalah kondisi kartu dimana kartu anda dan kartu tengah dengan total 7 kartu bisa mendapatkan nilai 5 kartu dengan kombinasi seri / staright dengan kembang yang sama contoh : urutan kartu dari angka 5, 6, 7, 8 , 9 10 dengan kembang yg sama misalnya as hati
  4. Royal flush adalah kondisi kartu dimana kartu anda dan kartu tengah dengan total 7 kartu bisa mendapatkan nilai 5 kartu dengan kombinasi seri / staright dengan kembang yang sama tetapi kartu tersebut haruslah dimulai dari 10. contoh 10, Queen, Jack, King dan aces dengan kembang yang sama
  5. Super Royal flush adalah kondisi kartu dimana Kedua kartu anda digabung dengan 3 kartu pertama meja haruslah royal flush. contoh kartu anda 10,Queen kembang sama dan 3 kartu pertama meja adalah Jack, King dan aces dengan kembang yang sama

Demikian adalah penjelasan dari Multi Jackpot www.ayopoker99.com terima kasih dan selamat bermain salam hoki dari kami

Texas Poker Jackpot Winner

TOP SUPER ROYAL FLUSH
No.TanggalNamaPriceWin
121/09 14:11ROYALJOZZSuper Royal flush60,000,000
221/09 13:43BA_ATIYOSuper Royal flush6,000,000
321/09 12:23B8EKCBJIYMSuper Royal flush3,000,000
421/09 08:32TUPO25Super Royal flush3,000,000
521/09 07:21SLOME898Super Royal flush30,000,000
TOP ROYAL FLUSH
No.TanggalNamaPriceWin
122/09 01:16SABONDWIRoyal flush10,000,000
222/09 01:00IJ4HELIS4Royal flush2,000,000
322/09 00:53TAWON127Royal flush2,000,000
422/09 00:52PENG55Royal flush2,000,000
522/09 00:44TADAH3Royal flush20,000,000
TOP STRAIGHT FLUSH
No.TanggalNamaPriceWin
122/09 01:23RIANSYAHJPStraight Flush240,000
222/09 01:22CHA212Straight Flush600,000
322/09 01:18ALGANAX888Straight Flush240,000
422/09 01:14HANSON7Straight Flush120,000
522/09 01:11DHY23Straight Flush240,000
LATEST JACKPOT
No.TanggalNamaPriceWin
122/09 01:24E4EA0132Full House5,000
222/09 01:24MINAAJAFull House2,000
322/09 01:24HORASS551Full House20,000
422/09 01:24LUCKIES999Full House5,000
522/09 01:24W1LM412Full House2,000
622/09 01:24KIJOTMAUTFull House20,000
722/09 01:24ATENG88Full House1,000
822/09 01:24REDDORZFull House5,000
922/09 01:24DEWYANDHAFull House2,000
1022/09 01:24DUD4ROYALFull House5,000
1122/09 01:24ELSANTA999Full House1,000
1222/09 01:24DENDIRIOFull House2,000
1322/09 01:24PETIR28Full House5,000
1422/09 01:24HABSU77Full House1,000
1522/09 01:24PVJBDGFull House5,000
1622/09 01:24KUKPRANGFull House10,000
1722/09 01:24KKDD07Full House2,000
1822/09 01:24F158BA3FFull House2,000
1922/09 01:24ALANJUNIORFull House2,000
2022/09 01:23ULYA6534Full House1,000
2122/09 01:23JAJATANFull House10,000
2222/09 01:23LOEBIEZFull House1,000
2322/09 01:23PREETT_17Four Of A Kind125,000
2422/09 01:23FAE1CB59Four Of A Kind50,000
2522/09 01:23SELANGINFull House5,000
2622/09 01:23N1N4HONKFull House2,000
2722/09 01:23ALEX19Full House5,000
2822/09 01:23DWBTHEY33Full House2,000
2922/09 01:23VERA11AAFull House2,000
3022/09 01:23BAY213Full House2,000
3122/09 01:23PRWTFull House10,000
3222/09 01:23BEARTOFull House5,000
3322/09 01:23RIJKIN4Four Of A Kind50,000
3422/09 01:23BETERR12Four Of A Kind50,000
3522/09 01:23QQZAMANFull House2,000
3622/09 01:23KONCONG22Four Of A Kind500,000
3722/09 01:23BWK32T353JFull House5,000
3822/09 01:23IYENKUFull House2,000
3922/09 01:23PARMONANG1Full House2,000
4022/09 01:23MF5POCE7LPFull House20,000
4122/09 01:23JO107Four Of A Kind50,000
4222/09 01:2301PRADANFull House5,000
4322/09 01:23AG0YC8IN5IFull House5,000
4422/09 01:23TTATOFull House1,000
4522/09 01:23F5743DA5Four Of A Kind125,000
4622/09 01:23TIMBERSAWTFull House5,000
4722/09 01:23SANYSCCFour Of A Kind250,000
4822/09 01:23KZ581JNGESFull House2,000
4922/09 01:23SARKOL12Full House1,000
5022/09 01:23XIONGYEFull House5,000

Domino Multi Jackpot System

Ikutilah global jackpot yang tersedia di system kami, dengan system jackpot terbaru dan pertama di indonesia, anda dapat membeli jackpot dengan harga 100 rupiah saja dan menangkan hadiahnya hingga puluhan juta rupiah.

Jackpot bukanlah suatu keharusan untuk dibeli, namun kami memberikan suatu fitur tambahan untuk member tercinta dari www.ayopoker99.com.

Terdapat tiga pilihan harga jackpot yang bisa anda beli yaitu :100,500 dan 1000 rupiah.

Hadiah dari Multi jackpot system www.ayopoker99.com

  1. Murni Kecil x 50 harga jackpot yang anda beli.
      (contoh:anda membeli 1000 maka:1000 X 50 = 50.000)
  2. Murni Besar x 50 harga jackpot yang anda beli
      (contoh:anda membeli 1000 maka:1000 X 50 = 50.000)
  3. BALAK x 100 harga jackpot yang anda beli
      (contoh:anda membeli 1000 maka:1000 X 100 = 100.000)
  4. ENAM DEWA x 6666 harga jackpot yang anda beli
      (contoh:anda membeli 1000 maka:1000 X 6666 = 6.666.000)

Demikian adalah penjelasan dari Multi Jackpot www.ayopoker99.com terima kasih dan selamat bermain salam hoki dari kami

Domino Jackpot Winner

TOP ENAM DEWA
No.TanggalNamaPriceWin
122/09 01:09WISMA92murni enam3,333,000
222/09 01:08ABAY888888murni enam3,333,000
322/09 00:44AMSEO99murni enam3,333,000
422/09 00:43DYCK22murni enam6,666,000
521/09 23:35TEMPE444murni enam666,600
TOP BALAK
No.TanggalNamaPriceWin
122/09 01:24ALASAN11balak100,000
222/09 01:20BG_OCIDbalak100,000
322/09 01:19T212BOM99balak10,000
422/09 01:17T212BOM99balak10,000
522/09 01:17ACIL66balak100,000
LATEST JACKPOT
No.TanggalNamaPriceWin
122/09 01:24HOKI_66murni besar50,000
222/09 01:24ALASAN11balak100,000
322/09 01:23MONKEYZmurni besar50,000
422/09 01:23BELVA212murni kecil5,000
522/09 01:23NORAARIYANmurni besar50,000
622/09 01:23JONKUR02lucky992,500
722/09 01:23VINAAJA9murni kecil25,000
822/09 01:22LB886763murni besar25,000
922/09 01:22CELAmurni kecil25,000
1022/09 01:22MANSYUR72lucky992,500
1122/09 01:21MASISAmurni kecil50,000
1222/09 01:21ANTO5_5murni kecil25,000
1322/09 01:21JABUT172murni besar50,000
1422/09 01:20RASKAL90murni besar50,000
1522/09 01:20ROOM28murni besar50,000
1622/09 01:20PASTOEJACKmurni besar50,000
1722/09 01:20ACIL66murni kecil50,000
1822/09 01:20BG_OCIDbalak100,000
1922/09 01:19T212BOM99balak10,000
2022/09 01:19FERERA88murni kecil25,000
2122/09 01:18VIOLET72murni besar25,000
2222/09 01:17T212BOM99balak10,000
2322/09 01:17ACIL66balak100,000
2422/09 01:17CEE96murni kecil50,000
2522/09 01:17JALIMINSBRmurni kecil5,000
2622/09 01:17RH4848murni besar5,000
2722/09 01:17MERRYJACINmurni besar25,000
2822/09 01:16AIT88murni besar5,000
2922/09 01:16JAMESWON66murni besar50,000
3022/09 01:15DENDEN2403balak100,000
3122/09 01:15SOKIPUNAImurni besar50,000
3222/09 01:15ONGBAK09murni besar25,000
3322/09 01:15STW79balak100,000
3422/09 01:14GEGER057balak100,000
3522/09 01:14SIJONCGR88murni kecil50,000
3622/09 01:14A1721FBDbalak100,000
3722/09 01:13UDUKMPALlucky9910,000
3822/09 01:12BARBARQQmurni besar50,000
3922/09 01:12ASAADmurni besar50,000
4022/09 01:10JEFF1603murni kecil50,000
4122/09 01:10MERCIZAAKmurni besar50,000
4222/09 01:10GAJAH1THNmurni besar5,000
4322/09 01:09WISMA92murni enam3,333,000
4422/09 01:09FRANS48balak100,000
4522/09 01:09ED473B6Dbalak100,000
4622/09 01:08MARYANTO70murni besar50,000
4722/09 01:08PIT99murni kecil50,000
4822/09 01:08ABAY888888murni enam3,333,000
4922/09 01:07DRAGON75murni besar5,000
5022/09 01:07ASHCOMmurni kecil25,000

Ceme Multi Jackpot System

Jackpot dilihat dari gabungan kartu pemain dengan kartu bandar. Bandar harus membeli jackpot sebanyak jumlah player yang sedang duduk. Sebagai contoh bila terdapat 3 pemain duduk bermain, dan bandar memutuskan untuk membeli jackpot Rp 1.000, maka pada periode tersebut bandar akan membeli jackpot sebanyak 3xRp1.000 = Rp3.000.

Jackpot bukanlah suatu keharusan untuk dibeli, namun kami memberikan suatu fitur tambahan untuk member tercinta dari www.ayopoker99.com.

Terdapat tiga pilihan harga jackpot yang bisa anda beli yaitu :100,500 dan 1000 rupiah.

Hadiah dari Multi jackpot system www.ayopoker99.com

  1. Murni Kecil x 50 harga jackpot yang anda beli.
      (contoh:anda membeli 1000 maka:1000 X 50 = 50.000)
  2. Murni Besar x 50 harga jackpot yang anda beli
      (contoh:anda membeli 1000 maka:1000 X 50 = 50.000)
  3. BALAK x 200 harga jackpot yang anda beli
      (contoh:anda membeli 1000 maka:1000 X 200 = 200.000)
  4. ENAM DEWA x 6666 harga jackpot yang anda beli
      (contoh:anda membeli 1000 maka:1000 X 6666 = 6.666.000)

Demikian adalah penjelasan dari Multi Jackpot www.ayopoker99.com terima kasih dan selamat bermain salam hoki dari kami

Ceme Jackpot Winner

TOP ENAM DEWA
No.TanggalNamaPriceWin
122/09 01:13ALUCARD27murni enam6,666,000
222/09 01:12MRET27murni enam3,333,000
322/09 00:58MARZO11murni enam6,666,000
422/09 00:58FENGLIE12murni enam666,600
522/09 00:49TINIQU9murni enam6,666,000
TOP BALAK
No.TanggalNamaPriceWin
122/09 01:23IKANKOIIIbalak200,000
222/09 01:23SURFERbalak200,000
322/09 01:23KIMBHBAbalak200,000
422/09 01:23BRONGJAMSbalak100,000
522/09 01:23RASYARAFA1balak100,000
LATEST JACKPOT
No.TanggalNamaPriceWin
122/09 01:24PATEN198murni kecil50,000
222/09 01:23IKANKOIIIbalak200,000
322/09 01:23SURFERbalak200,000
422/09 01:23KIMBHBAbalak200,000
522/09 01:23BRONGJAMSbalak100,000
622/09 01:23GEFORCE78murni kecil50,000
722/09 01:23RASYARAFA1balak100,000
822/09 01:23KUSUT1balak20,000
922/09 01:23PATEN198murni kecil50,000
1022/09 01:23TORDmurni besar5,000
1122/09 01:23AY6balak200,000
1222/09 01:23TEMPE444murni besar25,000
1322/09 01:23TORRY81murni besar50,000
1422/09 01:234RAMALmurni besar5,000
1522/09 01:23DORIKmurni besar50,000
1622/09 01:23KUTIL9988murni besar50,000
1722/09 01:23WGHKLGN9murni besar25,000
1822/09 01:23PENDO008murni besar50,000
1922/09 01:22FNZFHQ87IVbalak200,000
2022/09 01:22STELL88murni kecil50,000
2122/09 01:22RONALD505murni kecil5,000
2222/09 01:22DANDIDOTTmurni kecil5,000
2322/09 01:22BEGJAQIUbalak200,000
2422/09 01:22SAYANGJ2balak100,000
2522/09 01:22JAJAJALULUmurni kecil5,000
2622/09 01:22JAROOT28murni kecil5,000
2722/09 01:22SHERMYmurni besar50,000
2822/09 01:22FAYZA28murni besar5,000
2922/09 01:22SOSHUMmurni besar5,000
3022/09 01:22SANGGADITYmurni kecil25,000
3122/09 01:22WERZEWERZmurni kecil25,000
3222/09 01:22B3A5996Fmurni besar5,000
3322/09 01:22IDPRO77754murni kecil50,000
3422/09 01:22W1N7murni kecil5,000
3522/09 01:22TOGE31murni kecil25,000
3622/09 01:22YQELII7JTHmurni kecil50,000
3722/09 01:22BONIALGOJAmurni kecil50,000
3822/09 01:22SIIDARAmurni kecil50,000
3922/09 01:22RAF1031murni kecil50,000
4022/09 01:22FEIIX2YIJ2murni kecil25,000
4122/09 01:22T4KOT90murni kecil50,000
4222/09 01:22BILKIS04murni kecil50,000
4322/09 01:21WIDIA11murni kecil50,000
4422/09 01:21GEBOY38murni kecil5,000
4522/09 01:21BEGJAQIUmurni kecil50,000
4622/09 01:21MUMBUL45murni kecil50,000
4722/09 01:21CHIPZAKImurni besar50,000
4822/09 01:21AZZAMI123murni besar50,000
4922/09 01:21HRP561978murni kecil50,000
5022/09 01:21SHEVA2004murni kecil50,000